TimeCDT,TemperatureF,Dew PointF,Humidity,Sea Level PressureIn,VisibilityMPH,Wind Direction,Wind SpeedMPH,Gust SpeedMPH,PrecipitationIn,Events,Conditions,WindDirDegrees,DateUTC
12:15 AM,55.4,55.4,100,29.65,7.0,NW,4.6,-,N/A,,Overcast,320,2013-05-22 05:15:00
12:35 AM,55.4,55.4,100,29.65,6.0,NW,5.8,-,N/A,,Overcast,310,2013-05-22 05:35:00
12:55 AM,53.6,53.6,100,29.65,6.0,NW,5.8,-,N/A,,Overcast,310,2013-05-22 05:55:00
1:15 AM,53.6,53.6,100,29.66,4.0,West,4.6,-,N/A,,Overcast,280,2013-05-22 06:15:00
1:35 AM,53.6,53.6,100,29.65,4.0,NW,5.8,-,N/A,,Overcast,320,2013-05-22 06:35:00
1:55 AM,53.6,53.6,100,29.65,4.0,NW,6.9,-,N/A,,Mostly Cloudy,310,2013-05-22 06:55:00
2:15 AM,53.6,53.6,100,29.65,4.0,WNW,4.6,-,N/A,,Mostly Cloudy,300,2013-05-22 07:15:00
4:55 AM,53.6,53.6,100,29.66,5.0,WNW,6.9,-,N/A,,Overcast,290,2013-05-22 09:55:00
5:15 AM,53.6,53.6,100,29.66,5.0,WNW,8.1,-,N/A,,Overcast,300,2013-05-22 10:15:00
5:35 AM,53.6,53.6,100,29.66,5.0,WNW,9.2,-,N/A,,Overcast,300,2013-05-22 10:35:00
5:55 AM,53.6,53.6,100,29.66,4.0,NW,9.2,-,N/A,,Overcast,320,2013-05-22 10:55:00
6:15 AM,53.6,53.6,100,29.66,4.0,NW,11.5,-,N/A,,Overcast,320,2013-05-22 11:15:00
6:35 AM,53.6,53.6,100,29.67,4.0,NW,9.2,-,N/A,,Overcast,320,2013-05-22 11:35:00
6:55 AM,53.6,53.6,100,29.67,3.0,NW,10.4,-,N/A,,Mostly Cloudy,320,2013-05-22 11:55:00
7:15 AM,53.6,53.6,100,29.67,4.0,NNW,12.7,-,N/A,,Overcast,340,2013-05-22 12:15:00
7:35 AM,51.8,51.8,100,29.68,4.0,NNW,11.5,-,N/A,,Overcast,340,2013-05-22 12:35:00
7:55 AM,50.0,50.0,100,29.69,3.0,NNW,13.8,-,N/A,,Light Drizzle,330,2013-05-22 12:55:00
8:15 AM,50.0,50.0,100,29.69,1.8,NNW,13.8,-,N/A,,Light Drizzle,340,2013-05-22 13:15:00
8:35 AM,50.0,50.0,100,29.69,2.5,North,12.7,18.4,N/A,Rain,Light Rain,350,2013-05-22 13:35:00
8:55 AM,50.0,50.0,100,29.70,2.5,North,16.1,-,N/A,Rain,Light Rain,350,2013-05-22 13:55:00
9:15 AM,50.0,50.0,100,29.71,5.0,North,12.7,-,N/A,,Light Drizzle,350,2013-05-22 14:15:00
9:35 AM,50.0,50.0,100,29.72,4.0,NNW,16.1,-,N/A,,Overcast,330,2013-05-22 14:35:00
9:55 AM,48.2,48.2,100,29.72,4.0,NNW,17.3,-,0.05,,Light Drizzle,340,2013-05-22 14:55:00
10:15 AM,48.2,48.2,100,29.73,3.0,NNW,15.0,-,N/A,Rain,Light Rain,340,2013-05-22 15:15:00
10:35 AM,50.0,48.2,94,29.74,8.0,NNW,13.8,20.7,N/A,Rain,Light Rain,330,2013-05-22 15:35:00
10:55 AM,48.2,48.2,100,29.74,8.0,NNW,16.1,-,N/A,Rain,Light Rain,340,2013-05-22 15:55:00
11:15 AM,50.0,48.2,94,29.75,10.0,NNW,15.0,21.9,N/A,Rain,Light Rain,340,2013-05-22 16:15:00
11:35 AM,50.0,48.2,94,29.75,9.0,NNW,13.8,-,N/A,Rain,Light Rain,340,2013-05-22 16:35:00
11:55 AM,50.0,48.2,94,29.76,10.0,NNW,16.1,-,0.01,Rain,Light Rain,330,2013-05-22 16:55:00
12:15 PM,51.8,48.2,88,29.76,9.0,NNW,16.1,23.0,N/A,Rain,Light Rain,340,2013-05-22 17:15:00
12:35 PM,51.8,50.0,94,29.76,9.0,NW,13.8,20.7,N/A,,Light Drizzle,320,2013-05-22 17:35:00
12:55 PM,51.8,50.0,94,29.76,9.0,NNW,17.3,-,N/A,,Light Drizzle,330,2013-05-22 17:55:00
1:15 PM,51.8,50.0,94,29.77,10.0,NW,17.3,-,N/A,,Light Drizzle,320,2013-05-22 18:15:00
1:35 PM,51.8,50.0,94,29.77,10.0,NW,17.3,-,N/A,,Light Drizzle,320,2013-05-22 18:35:00
1:55 PM,51.8,50.0,94,29.78,10.0,NNW,16.1,-,N/A,,Overcast,330,2013-05-22 18:55:00
2:15 PM,53.6,50.0,88,29.78,10.0,NW,19.6,-,N/A,,Overcast,320,2013-05-22 19:15:00
2:35 PM,51.8,48.2,88,29.79,10.0,NW,13.8,-,N/A,,Overcast,320,2013-05-22 19:35:00
2:55 PM,53.6,48.2,82,29.79,10.0,NW,17.3,23.0,N/A,,Overcast,320,2013-05-22 19:55:00
3:15 PM,53.6,48.2,82,29.79,10.0,NW,16.1,23.0,N/A,,Overcast,320,2013-05-22 20:15:00
3:35 PM,51.8,50.0,94,29.80,10.0,NNW,16.1,24.2,N/A,,Light Drizzle,330,2013-05-22 20:35:00
3:55 PM,51.8,50.0,94,29.80,9.0,NW,17.3,23.0,N/A,,Overcast,320,2013-05-22 20:55:00
4:15 PM,53.6,48.2,82,29.80,10.0,NW,16.1,-,N/A,,Overcast,320,2013-05-22 21:15:00
4:35 PM,53.6,50.0,88,29.80,10.0,NW,15.0,21.9,N/A,,Overcast,320,2013-05-22 21:35:00
4:55 PM,53.6,50.0,88,29.81,10.0,NW,15.0,23.0,N/A,,Overcast,320,2013-05-22 21:55:00
5:15 PM,51.8,50.0,94,29.81,9.0,NNW,16.1,-,N/A,,Overcast,330,2013-05-22 22:15:00
5:35 PM,51.8,50.0,94,29.82,6.0,NNW,16.1,-,N/A,,Light Drizzle,330,2013-05-22 22:35:00
5:55 PM,51.8,50.0,94,29.82,8.0,NNW,15.0,-,N/A,,Overcast,340,2013-05-22 22:55:00
6:15 PM,53.6,50.0,88,29.82,10.0,North,17.3,-,N/A,,Overcast,350,2013-05-22 23:15:00
6:35 PM,51.8,50.0,94,29.83,10.0,North,17.3,-,N/A,,Overcast,350,2013-05-22 23:35:00
6:55 PM,51.8,50.0,94,29.84,10.0,North,17.3,-,N/A,,Overcast,350,2013-05-22 23:55:00
7:15 PM,51.8,50.0,94,29.84,10.0,NNW,11.5,18.4,N/A,,Overcast,340,2013-05-23 00:15:00
7:35 PM,51.8,50.0,94,29.85,10.0,NNW,12.7,-,N/A,,Overcast,340,2013-05-23 00:35:00
7:55 PM,51.8,50.0,94,29.86,10.0,North,11.5,18.4,N/A,,Overcast,350,2013-05-23 00:55:00
8:15 PM,51.8,50.0,94,29.87,10.0,North,13.8,-,N/A,,Overcast,350,2013-05-23 01:15:00
8:35 PM,51.8,50.0,94,29.87,9.0,North,12.7,18.4,N/A,,Overcast,360,2013-05-23 01:35:00
8:55 PM,51.8,51.8,100,29.88,2.0,NNW,11.5,-,N/A,,Light Drizzle,340,2013-05-23 01:55:00
9:15 PM,51.8,51.8,100,29.89,5.0,North,12.7,20.7,N/A,,Light Drizzle,350,2013-05-23 02:15:00
9:35 PM,50.0,50.0,100,29.90,6.0,North,13.8,-,N/A,,Light Drizzle,360,2013-05-23 02:35:00
9:55 PM,50.0,50.0,100,29.91,10.0,North,15.0,-,N/A,,Overcast,350,2013-05-23 02:55:00
10:15 PM,50.0,50.0,100,29.92,10.0,North,16.1,-,N/A,,Light Drizzle,360,2013-05-23 03:15:00
10:35 PM,50.0,50.0,100,29.93,10.0,North,16.1,-,N/A,,Overcast,360,2013-05-23 03:35:00
10:55 PM,50.0,50.0,100,29.93,6.0,North,18.4,-,N/A,,Overcast,360,2013-05-23 03:55:00
11:15 PM,50.0,50.0,100,29.94,5.0,North,15.0,21.9,N/A,,Overcast,360,2013-05-23 04:15:00
11:35 PM,50.0,50.0,100,29.94,4.0,North,13.8,-,N/A,,Overcast,360,2013-05-23 04:35:00
11:55 PM,50.0,50.0,100,29.95,6.0,North,12.7,-,N/A,,Overcast,10,2013-05-23 04:55:00